Retour au catalogue

FENGYUN 1C DEB

ActifLEO
NORAD 31484·DEBRIS·🇨🇳 China

Lancé May 10, 1999 depuis Taiyuan Satellite Launch Center

Loading…

Prochains Passages (prochaines 24 heures)

TLE

FraisSource: Space-Track

Époque: Sep 14, 2026, 08:41 UTC

1 31484U 99025BVY 26257.36203930  .00012305  00000-0  23905-2 0  9995
2 31484 101.8079 312.7662 0068404 120.8846 239.9092 14.61908125682520

Suivez FENGYUN 1C DEB en temps réel avec AllMySat

Download on the App Store